Hourly Data Report for July 04, 2021

CARIBOU POINT (AUT)
NOVA SCOTIA
Current Station Operator: ECCC - MSC

45°46'00.000" N
62°41'00.000" W
2.40 m
8200774
71415
WBK

Download Data

Hourly Data (July 2021)
Hourly Data Report for July 4, 2021
TIME
LST
Temp Definition
°C
Dew Point Definition
°C
Rel Hum Definition
%
Precip. Amount Definition
mm

Wind Dir Definition
10's deg

Wind Spd Definition
km/h
Visibility Definition
km
Stn Press Definition
kPa
Hmdx Definition


Wind Chill Definition


Weather Definition


00:00 13.6 12.1 90 0.0 6 36   100.91     LegendNANA
01:00 13.6 12.7 94 0.7 6 34   100.88     LegendNANA
02:00 13.8 12.8 94 0.3 5 36   100.81     LegendNANA
03:00 13.4 12.4 94 0.0 5 41   100.70     LegendNANA
04:00 13.5 12.0 90 0.0 5 39   100.70     LegendNANA
05:00 13.4 12.5 94 0.3 5 45   100.66     LegendNANA
06:00 13.3 12.3 94 0.2 5 44   100.67     LegendNANA
07:00 13.4 12.0 91 0.0 6 41   100.70     LegendNANA
08:00 13.2 11.8 91 0.0 6 39   100.77     LegendNANA
09:00 12.9 11.8 94 0.9 6 34   100.83     LegendNANA
10:00 12.8 11.8 94 6.7 6 38   100.82     LegendNANA
11:00 12.9 11.7 92 0.7 6 35   100.81     LegendNANA
12:00 13.0 11.5 91 0.2 6 38   100.79     LegendNANA
13:00 12.9 11.5 91 0.0 6 36   100.81     LegendNANA
14:00 12.9 12.0 95 0.6 5 40   100.80     LegendNANA
15:00 12.7 11.6 93 0.6 5 36   100.85     LegendNANA
16:00 12.7 11.9 95 1.8 4 33   100.81     LegendNANA
17:00 12.8 11.7 93 0.4 5 39   100.77     LegendNANA
18:00 12.4 11.3 93 0.0 2 37   100.80     LegendNANA
19:00 12.4 11.1 92 0.2 36 27   100.84     LegendNANA
20:00 12.3 10.9 92 0.0 1 25   100.84     LegendNANA
21:00 12.2 11.2 93 0.0 36 24   100.86     LegendNANA
22:00 12.2 11.2 93 0.2 32 30   100.86     LegendNANA
23:00 12.3 11.2 93 0.0 33 31   100.87     LegendNANA

Notes on Data Quality.

Legend

  • E = Estimated
  • M = Missing
  • NA = Not Available*
  • [empty] = Indicates an unobserved value
Date modified: